Weather History for Eastover, SC

Change the Weather History Date:

Saturday, October 20, 2012

  Actual Average Record
Temperature  
Mean Temperature 58 °F -  
Max Temperature 75 °F 71 °F 86 °F (2005)
Min Temperature 42 °F 49 °F 35 °F (2008)
Degree Days  
Heating Degree Days 6    
Growing Degree Days 8 (Base 50)    
Moisture  
Dew Point 43 °F    
Average Humidity 65    
Maximum Humidity 95    
Minimum Humidity 29    
Precipitation  
Precipitation 0.00 in - - ()
Sea Level Pressure  
Sea Level Pressure 29.87 in    
Wind  
Wind Speed 3 mph (West)    
Max Wind Speed 13 mph    
Max Gust Speed 20 mph    
Visibility 10 miles    
Events      
Averages and records for this station are not official NWS values.
T = Trace of Precipitation, MM = Missing Value Source: NWS Daily Summary

Daily Weather History Graph

Daily Weather History Graph

Search for Another Location

Airport:

Trip Planner

Search our weather history database for the weather conditions in past years. The results will help you decide how hot, cold, wet, or windy it might be!

Date:

Astronomy

Oct. 20, 2012 Rise Set
Actual Time 7:32 AM EDT 6:42 PM EDT
Civil Twilight 7:07 AM EDT 7:07 PM EDT
Nautical Twilight 6:38 AM EDT 7:37 PM EDT
Astronomical Twilight 6:09 AM EDT 8:06 PM EDT
Moon 12:59 PM EDT (10/20) 11:34 PM EDT (10/20)
Length of Visible Light 12h 00m
Length of Day
11h 09m
Waxing Crescent, 34% of the Moon is Illuminated
Oct 20
Waxing Crescent
Oct 21
First Quarter
Oct 29
Full
Nov 6
Last Quarter
Nov 13
New

Hourly Weather History & Observations

Time (EDT) Temp. Windchill Dew Point Humidity Pressure Visibility Wind Dir Wind Speed Gust Speed Precip Events Conditions
12:55 AM 45.9 °F - 42.6 °F 88% 29.83 in 10.0 mi Calm Calm - N/A   Clear
1:55 AM 45.0 °F - 42.3 °F 90% 29.83 in 10.0 mi Calm Calm - N/A   Clear
2:55 AM 45.0 °F - 42.4 °F 91% 29.83 in 10.0 mi Calm Calm - N/A   Clear
3:55 AM 43.9 °F 42.3 °F 41.4 °F 91% 29.83 in 10.0 mi NW 3.5 mph - N/A   Clear
4:55 AM 45.5 °F - 42.3 °F 88% 29.83 in 10.0 mi Calm Calm - N/A   Clear
5:55 AM 43.9 °F - 41.5 °F 91% 29.83 in 10.0 mi Calm Calm - N/A   Clear
6:55 AM 42.6 °F - 41.4 °F 95% 29.85 in 10.0 mi Calm Calm - N/A   Clear
7:55 AM 43.3 °F - 41.2 °F 92% 29.86 in 10.0 mi Calm Calm - N/A   Clear
8:55 AM 50.0 °F - 44.2 °F 81% 29.89 in 10.0 mi Calm Calm - N/A   Clear
9:55 AM 59.5 °F - 43.3 °F 55% 29.90 in 10.0 mi West 9.2 mph - N/A   Scattered Clouds
10:55 AM 65.5 °F - 43.3 °F 45% 29.90 in 10.0 mi West 9.2 mph - N/A   Mostly Cloudy
11:55 AM 70.0 °F - 42.3 °F 37% 29.88 in 10.0 mi WNW 12.7 mph - N/A   Scattered Clouds
12:55 PM 72.1 °F - 40.3 °F 32% 29.86 in 10.0 mi West 12.7 mph 18.4 mph N/A   Partly Cloudy
1:55 PM 73.2 °F - 40.6 °F 31% 29.85 in 10.0 mi West 11.5 mph - N/A   Clear
2:55 PM 74.8 °F - 41.2 °F 30% 29.84 in 10.0 mi West 11.5 mph - N/A   Clear
3:55 PM 75.4 °F - 41.4 °F 29% 29.83 in 10.0 mi West 12.7 mph 19.6 mph N/A   Partly Cloudy
4:55 PM 75.2 °F - 41.9 °F 30% 29.84 in 10.0 mi West 6.9 mph - N/A   Clear
5:55 PM 73.4 °F - 41.7 °F 32% 29.85 in 10.0 mi West 6.9 mph - N/A   Clear
6:55 PM 65.8 °F - 45.1 °F 47% 29.86 in 10.0 mi Calm Calm - N/A   Clear
7:55 PM 58.5 °F - 45.9 °F 63% 29.89 in 10.0 mi Calm Calm - N/A   Clear
8:55 PM 55.2 °F - 47.3 °F 75% 29.91 in 10.0 mi Calm Calm - N/A   Scattered Clouds
9:55 PM 54.9 °F - 47.7 °F 77% 29.93 in 10.0 mi Calm Calm - N/A   Mostly Cloudy
10:55 PM 52.2 °F - 47.8 °F 85% 29.95 in 10.0 mi Calm Calm - N/A   Clear
11:55 PM 49.3 °F - 45.1 °F 86% 29.96 in 10.0 mi Calm Calm - N/A   Clear